Location: Transit Dreams Observatory
(35.0756°N, 82.1525°W)
Time: 02:20:58
(UTC-05:00)

BlueWalker 3 - Visible Passes

Search period start: 16 November 2025 00:00
Search period end: 26 November 2025 00:00
Orbit: 456 x 463 km, 53.2° (Epoch: 15 November)

Date Brightness Start Highest point End Pass type
(mag) Time Alt. Az. Time Alt. Az. Time Alt. Az.
16 Nov 2.1 18:59:18 10° SSW 19:02:28 52° SSE 19:02:28 52° SSE visible
17 Nov 2.4 18:25:00 10° SSW 18:28:23 39° SE 18:29:50 26° E visible
17 Nov 5.1 20:03:13 10° W 20:03:40 12° W 20:03:40 12° W visible
18 Nov 2.9 17:50:47 10° S 17:53:56 29° SE 17:57:07 10° ENE visible
18 Nov 3.8 19:28:22 10° W 19:30:56 25° NW 19:30:56 25° NW visible
19 Nov 3.2 18:53:35 10° WSW 18:56:53 33° NW 18:58:07 26° N visible
20 Nov 2.7 18:18:52 10° WSW 18:22:19 42° NW 18:25:11 14° NNE visible
21 Nov 2.3 17:44:12 10° WSW 17:47:46 57° NW 17:51:21 10° NE visible
21 Nov 4.7 19:25:39 10° NNW 19:25:59 10° NNW 19:25:59 10° NNW visible
22 Nov 4.4 18:49:48 10° NW 18:51:17 12° NNW 18:52:46 10° N visible
23 Nov 4.3 18:14:31 10° WNW 18:16:35 14° NNW 18:18:39 10° N visible
